* Astronomy

Members Login
Post Info TOPIC: Asteroid 2010 AN2


L

Posts: 131433
Date:
RE: Asteroid 2010 AN2
Permalink  
 


Asteroid 2010 AN2 has passed the Earth.

__________________


L

Posts: 131433
Date:
Permalink  
 

The 95 - 210 metre wide asteroid 2010 AN2 will make a close pass (57.5 lunar distances, 0.1478 AU), travelling at 9.53 km/second, to the Earth-Moon system on the 27th February, 2010.

See more

The Lunar Distance (LD), the distance between Earth and the Moon, equals 384,401 km, (or 0.00256 AU).


-- Edited by Blobrana on Wednesday 13th of January 2010 02:35:21 PM

__________________


L

Posts: 131433
Date:
Permalink  
 

Orbital elements:
2010 AN2 Earth MOID = 0.0692 AU
Epoch 2010 Jan. 4.0 TT = JDT 2455200.5 MPC
M 318.14623 (2000.0) P Q
n 0.46577529 Peri. 270.59044 -0.91653625 +0.37586059
a 1.6482323 Node 291.49351 -0.28285059 -0.85080995
e 0.4852521 Incl. 8.44902 -0.28276640 -0.36722099
P 2.12 H 22.2 G 0.15 U 9

MPEC 2010 - A37


__________________
Page 1 of 1  sorted by
Quick Reply

Please log in to post quick replies.



Create your own FREE Forum
Report Abuse
Powered by ActiveBoard